Location: Cargill Incorporated Elevator
(42.7294°N, 93.7333°W)
Time: 05:15:59
(UTC+00:00)

Cosmos 1953 - Pass Details

Date: 19 January 2026
Orbit: 474 x 489 km, 82.5° (Epoch: 14 February)

Event Time Altitude Azimuth Distance (km) Brightness Sun altitude
Rises 12:22:04 0° 180° (S) 2,532 5.9 -14.2°
Reaches altitude 10° 12:24:09 10° 178° (S) 1,660 5.0 -13.9°
Maximum altitude 12:27:45 66° 96° (E) 534 2.5 -13.2°
Drops below altitude 10° 12:31:24 10° 14° (NNE) 1,685 4.8 -12.6°
Sets 12:33:32 0° 11° (NNE) 2,574 5.7 -12.2°
